User: anonymous   Login
Location: Fairmont
(43.6520°N, 94.4610°W)
Time: 00:26:38
(UTC-05:00)
Language:

Cosmos-2242 - Orbit

View from above orbital plane
View from above orbital plane
View from above satellite
View from above satellite

Ground track
Ground track

The orbit data is extracted from the following two-line orbital elements,

1 22626U 93024A   16152.80675590  .00000318  00000-0  32316-4 0  9992
2 22626  82.5236  41.3030 0017942 310.0017  49.9624 14.87459487249457
Epoch (UTC): 31 May 2016 19:21:43
Eccentricity: 0.0017942
inclination: 82.5236°
perigee height: 593 km
apogee height: 618 km
right ascension of ascending node: 41.3030°
argument of perigee: 310.0017°
revolutions per day: 14.87459487
mean anomaly at epoch: 49.9624°
orbit number at epoch: 24945

The dashed part of the orbit path shows where the satellite is in the earth's shadow,  

DLR